EW2973 Weather Reports


time (UTC)temp
C
wind
direction
speed
KPH
gust
KPH
rain 1hr
cm
rain 24hr
cm
rain mn
cm
humidity
%
barometer
mb
20260508134524 11 244 4.8 12.9 0.00 0.00 0.00 62 1015.1
20260508133008 11 248 9.7 17.7 0.00 0.00 0.00 63 1015.1
20260508131506 10 242 4.8 11.3 0.00 0.00 0.00 66 1015.0
20260508130008 10 176 3.2 9.7 0.00 0.00 0.00 65 1015.1
20260508124508 9 232 3.2 9.7 0.00 0.00 0.00 67 1015.0
20260508123010 8 186 3.2 11.3 0.00 0.00 0.00 68 1014.9
20260508121507 8 197 1.6 9.7 0.00 0.00 0.00 69 1015.0
20260508120006 7 185 1.6 9.7 0.00 0.00 0.00 72 1015.0
20260508114509 7 195 3.2 11.3 0.00 0.00 0.00 73 1014.9
20260508113011 6 242 1.6 4.8 0.00 0.00 0.00 75 1014.7
20260508111508 6 193 0.0 4.8 0.00 0.00 0.00 76 1014.6
20260508110009 6 171 0.0 8.0 0.00 0.00 0.00 77 1014.5
20260508104508 6 194 0.0 3.2 0.00 0.00 0.00 77 1014.4
20260508103012 6 188 0.0 3.2 0.00 0.00 0.00 76 1014.2
20260508101523 6 216 0.0 3.2 0.00 0.00 0.00 75 1014.2
20260508100011 6 203 1.6 4.8 0.00 0.00 0.00 75 1014.2
20260508094512 6 183 1.6 4.8 0.00 0.00 0.00 74 1014.2
20260508093034 6 186 1.6 6.4 0.00 0.00 0.00 74 1014.2
20260508091510 6 169 1.6 6.4 0.00 0.00 0.00 76 1014.3
20260508090024 6 169 0.0 3.2 0.00 0.00 0.00 76 1014.4
20260508084512 6 189 0.0 3.2 0.00 0.00 0.00 76 1014.4
20260508083020 6 173 0.0 3.2 0.00 0.00 0.00 76 1014.2
20260508081513 6 170 0.0 0.0 0.00 0.00 0.00 76 1014.3
20260508080015 7 178 0.0 0.0 0.00 0.00 0.00 76 1014.3
20260508074516 7 200 0.0 0.0 0.00 0.00 0.00 77 1014.3
20260508073012 7 277 0.0 0.0 0.00 0.00 0.00 78 1014.4
20260508071513 7 340 0.0 0.0 0.00 0.00 0.00 78 1014.7
20260508070009 7 340 0.0 0.0 0.00 0.00 0.00 77 1014.9
20260508064514 7 340 0.0 0.0 0.00 0.00 0.00 75 1015.0
20260508063013 8 340 0.0 0.0 0.00 0.00 0.00 73 1015.3
20260508061515 8 262 0.0 1.6 0.00 0.00 0.00 71 1015.4
20260508060017 8 211 0.0 3.2 0.00 0.00 0.00 69 1014.7
20260508054513 7 167 1.6 4.8 0.00 0.00 0.00 69 1014.5
20260508053010 7 192 0.0 1.6 0.00 0.00 0.00 70 1014.6
20260508051517 7 171 0.0 0.0 0.00 0.00 0.00 72 1014.6
20260508050018 7 174 0.0 0.0 0.00 0.00 0.00 73 1014.8
20260508044518 7 173 0.0 0.0 0.00 0.00 0.00 75 1014.8
20260508043016 7 188 0.0 3.2 0.00 0.00 0.00 75 1014.9
20260508041513 6 257 0.0 0.0 0.00 0.00 0.00 78 1014.9
20260508040018 6 257 0.0 0.0 0.00 0.00 0.00 79 1014.8
20260508034515 6 257 0.0 0.0 0.00 0.00 0.00 79 1014.7
20260508033025 6 257 0.0 0.0 0.00 0.00 0.00 78 1014.8
20260508031516 6 257 0.0 0.0 0.00 0.00 0.00 75 1014.5
20260508030017 6 257 0.0 0.0 0.00 0.00 0.00 76 1014.6
20260508024520 6 257 0.0 0.0 0.00 0.00 0.00 75 1014.7
20260508023033 7 257 0.0 0.0 0.00 0.00 0.00 73 1014.6
20260508021513 7 257 0.0 0.0 0.00 0.00 0.00 70 1014.6
20260508020021 7 257 0.0 0.0 0.00 0.00 0.00 66 1014.7
20260508014520 8 257 0.0 0.0 0.00 0.00 0.00 66 1014.6
20260508013020 8 257 0.0 0.0 0.00 0.00 0.00 62 1014.6
20260508011521 9 257 0.0 0.0 0.00 0.00 0.00 58 1014.5
20260508010035 10 257 0.0 0.0 0.00 0.00 0.00 57 1014.4
20260508004522 10 257 0.0 0.0 0.00 0.00 0.00 51 1014.4
20260508003019 11 257 0.0 0.0 0.00 0.00 0.00 47 1014.2
20260508001529 11 257 0.0 3.2 0.00 0.00 0.00 45 1014.2
20260508000022 12 262 0.0 0.0 0.00 0.00 0.00 46 1014.1
20260507234524 12 23 0.0 4.8 0.00 0.00 0.00 44 1014.0
20260507233019 12 360 0.0 3.2 0.00 0.00 0.00 43 1014.0
20260507231518 13 352 1.6 4.8 0.00 0.00 0.00 42 1013.9
20260507230016 13 17 1.6 6.4 0.00 0.00 0.00 42 1013.9
20260507224512 13 352 3.2 6.4 0.00 0.00 0.00 43 1014.1
20260507223021 13 5 0.0 4.8 0.00 0.00 0.00 42 1014.2
20260507221527 13 19 3.2 12.9 0.00 0.00 0.00 39 1014.2
20260507220024 14 338 1.6 11.3 0.00 0.00 0.00 40 1014.2
20260507214527 14 323 1.6 4.8 0.00 0.00 0.00 39 1013.9
20260507213029 14 263 1.6 6.4 0.00 0.00 0.00 38 1014.0
20260507211516 15 334 3.2 14.5 0.00 0.00 0.00 37 1013.8
20260507210042 15 17 4.8 12.9 0.00 0.00 0.00 42 1013.8
20260507204522 15 336 4.8 8.0 0.00 0.00 0.00 40 1013.7
20260507203023 15 62 0.0 12.9 0.00 0.00 0.00 42 1013.4
20260507201527 15 5 6.4 16.1 0.00 0.00 0.00 40 1013.8
20260507200034 15 5 4.8 8.0 0.00 0.00 0.00 42 1013.7
20260507194520 15 350 6.4 12.9 0.00 0.00 0.00 41 1013.8
20260507193026 15 360 3.2 12.9 0.00 0.00 0.00 41 1013.8
20260507191527 15 327 1.6 14.5 0.00 0.00 0.00 46 1013.9
20260507190031 15 316 3.2 11.3 0.00 0.00 0.00 41 1014.0
20260507184523 15 44 1.6 8.0 0.00 0.00 0.00 48 1013.9
20260507183034 15 62 3.2 14.5 0.00 0.00 0.00 47 1014.0
20260507181524 14 293 1.6 12.9 0.00 0.00 0.00 49 1014.0
20260507180022 14 340 1.6 6.4 0.00 0.00 0.00 47 1014.0
20260507174519 13 17 1.6 14.5 0.00 0.00 0.00 44 1014.1
20260507173026 13 350 3.2 20.9 0.00 0.00 0.00 46 1014.3
20260507171525 13 91 3.2 22.5 0.00 0.00 0.00 41 1014.6
20260507170025 13 252 6.4 17.7 0.00 0.00 0.00 43 1014.7
20260507164524 13 207 8.0 16.1 0.00 0.00 0.00 45 1014.8
20260507163022 13 13 1.6 16.1 0.00 0.00 0.00 46 1014.8
20260507161522 13 31 1.6 11.3 0.00 0.00 0.00 43 1014.8
20260507160029 13 360 4.8 11.3 0.00 0.00 0.00 47 1014.8
20260507154518 13 253 8.0 17.7 0.00 0.00 0.00 45 1014.6
20260507153019 13 269 6.4 12.9 0.00 0.00 0.00 43 1014.5
20260507151526 12 247 6.4 14.5 0.00 0.00 0.00 46 1014.4
20260507150027 12 5 0.0 17.7 0.00 0.00 0.00 48 1014.5
20260507144541 11 138 4.8 11.3 0.00 0.00 0.00 50 1014.6
20260507143022 11 230 4.8 11.3 0.00 0.00 0.00 52 1014.5
20260507141526 11 238 4.8 12.9 0.00 0.00 0.00 52 1014.7
20260507140017 10 263 1.6 8.0 0.00 0.00 0.00 57 1014.7